Glendale Luke AFB, AZ

8:00 PM MST on November 16, 2019 (GMT -0700)
Luke Air Force Base

Weather History for KLUF - September, 2019

Change the Weather History Date:

Sunday, September 15, 2019

  Actual Average Record
Temperature  
Mean Temperature 86 °F -  
Max Temperature 97 °F 100 °F 109 °F (1932)
Min Temperature 76 °F 66 °F 54 °F (1928)
Cooling Degree Days 22    
Growing Degree Days 36 (Base 50)    
Moisture  
Dew Point 58 °F    
Average Humidity 36    
Maximum Humidity 58    
Minimum Humidity 24    
Precipitation  
Precipitation 0.00 in - - ()
Sea Level Pressure  
Sea Level Pressure 29.82 in    
Wind  
Wind Speed 4 mph (ESE)    
Max Wind Speed 12 mph    
Max Gust Speed -    
Visibility 10 miles    
Events      
Averages and records for this station are not official NWS values.
T = Trace of Precipitation, MM = Missing Value Source: NWS Daily Summary

Daily Weather History Graph

Daily Weather History Graph

Search for Another Location

Airport or City:

Astronomy

Sep. 15, 2019 Rise Set
Actual Time 6:12 AM MST 6:36 PM MST
Civil Twilight 5:47 AM MST 7:01 PM MST
Nautical Twilight 5:18 AM MST 7:30 PM MST
Astronomical Twilight 4:48 AM MST 7:59 PM MST
Moon 7:48 PM MST (9/15) 7:25 AM MST (9/15)
Length of Visible Light 13h 13m
Length of Day
12h 23m
Full, 98% of the Moon is Illuminated
Sep 15
Full
Sep 21
Last Quarter
Sep 28
New
Oct 5
First Quarter
Oct 13
Full

Hourly Weather History & Observations

Time (MST) Temp. Heat Index Dew Point Humidity Pressure Visibility Wind Dir Wind Speed Gust Speed Precip Events Conditions
12:58 AM 84.7 °F 84.2 °F 58.5 °F 41% 29.87 in 10.0 mi Calm Calm - N/A   Clear
1:58 AM 82.4 °F 82.3 °F 58.3 °F 44% 29.88 in 10.0 mi North 6.9 mph - N/A   Clear
2:58 AM 80.2 °F 80.9 °F 59.4 °F 49% 29.87 in 10.0 mi NNW 4.6 mph - N/A   Clear
3:58 AM 80.6 °F 81.5 °F 60.8 °F 51% 29.86 in 10.0 mi ENE 6.9 mph - N/A   Clear
4:58 AM 80.1 °F 80.8 °F 59.2 °F 49% 29.86 in 10.0 mi East 4.6 mph - N/A   Clear
6:58 AM 76.6 °F - 60.8 °F 58% 29.88 in 10.0 mi North 3.5 mph - N/A   Clear
7:58 AM 77.9 °F - 61.0 °F 56% 29.89 in 10.0 mi NW 4.6 mph - N/A   Clear
8:58 AM 85.5 °F 85.4 °F 60.4 °F 43% 29.90 in 10.0 mi NE 5.8 mph - N/A   Clear
9:58 AM 89.1 °F 88.0 °F 57.7 °F 35% 29.91 in 10.0 mi East 9.2 mph - N/A   Clear
10:58 AM 90.7 °F 89.5 °F 57.6 °F 33% 29.89 in 10.0 mi ESE 6.9 mph - N/A   Clear
11:58 AM 91.9 °F 90.8 °F 57.7 °F 32% 29.87 in 10.0 mi SE 11.5 mph - N/A   Clear
12:58 PM 92.8 °F 91.7 °F 57.7 °F 31% 29.84 in 10.0 mi SSE 4.6 mph - N/A   Clear
1:58 PM 94.6 °F 93.9 °F 58.3 °F 30% 29.81 in 10.0 mi SE 8.1 mph - N/A   Clear
2:58 PM 95.7 °F 94.7 °F 57.4 °F 28% 29.77 in 10.0 mi ESE 5.8 mph - N/A   Clear
3:58 PM 97.2 °F 95.2 °F 54.3 °F 24% 29.75 in 10.0 mi Calm Calm - N/A   Clear
4:58 PM 97.5 °F 96.5 °F 56.8 °F 26% 29.74 in 10.0 mi SW 8.1 mph - N/A   Clear
5:58 PM 96.4 °F 94.6 °F 54.9 °F 25% 29.73 in 10.0 mi South 4.6 mph - N/A   Clear
6:58 PM 95.7 °F 93.4 °F 53.1 °F 24% 29.75 in 10.0 mi SSE 4.6 mph - N/A   Clear
7:58 PM 94.5 °F 92.6 °F 55.2 °F 27% 29.76 in 10.0 mi Calm Calm - N/A   Clear
8:58 PM 93.7 °F 92.0 °F 55.6 °F 28% 29.77 in 10.0 mi Calm Calm - N/A   Clear
9:58 PM 91.8 °F 90.0 °F 55.9 °F 30% 29.78 in 10.0 mi SSE 4.6 mph - N/A   Clear
10:58 PM 88.9 °F 87.5 °F 56.8 °F 34% 29.78 in 10.0 mi Calm Calm - N/A   Clear
11:58 PM 86.2 °F 85.2 °F 57.6 °F 38% 29.79 in 10.0 mi Calm Calm - N/A   Clear